Station ORIN7 - 8652587 - Oregon Inlet Marina, NC Image indicating link to RSS feed of recent meteorological observations for station ORIN7


Conditions at ORIN7 as of
(1:18 am EDT)
0518 GMT on 05/20/2024:
     

Click on the graph icon in the table below to see a time series plot of the last five days of that observation.

5-day plot - Atmospheric Pressure Atmospheric Pressure (PRES):1015.8 mb
5-day plot - Water Temperature Water Temperature (WTMP): 18.7 °C
NOS Water Level Observation Network Water Level
Previous observations
TIME
(EDT)
5-day plot - Wind Direction
WDIR
 
5-day plot - Wind Speed
WSPD
m/s
5-day plot - Wind Gust
GST
m/s
5-day plot - Wave Height
WVHT
m
5-day plot - Dominant Wave Period
DPD
sec
5-day plot - Average Wave Period
APD
sec
5-day plot - Mean Wave Direction
MWD
 
5-day plot - Atmospheric Pressure
PRES
mb
5-day plot - Pressure Tendency
PTDY
mb
5-day plot - Air Temperature
ATMP
°C
5-day plot - Water Temperature
WTMP
°C
5-day plot - Dew Point
DEWP
°C
5-day plot - Salinity
SAL
psu
5-day plot - Visibility
VIS
km
5-day plot - Tide (above MLLW)
TIDE
m
2024-05-20 01:12 am-------1015.9-- 18.7----
2024-05-20 01:06 am-------1015.9-- 18.7----
2024-05-20 01:00 am N 6.2 8.2----1015.9 -0.4 13.9 18.7----
2024-05-20 12:54 am N 5.7 9.3----1015.9- 14.0 18.7----
2024-05-20 12:48 am N 6.2 8.8----1015.9- 14.0 18.7----
2024-05-20 12:42 am N 6.2 7.7----1015.9- 13.9 18.7----
2024-05-20 12:36 am N 6.2 8.2----1015.9- 14.0 18.7----
2024-05-20 12:30 am N 6.2 8.2----1015.9- 13.9 18.8----
2024-05-20 12:24 am N 5.1 8.8----1015.9- 13.9 18.8----
2024-05-20 12:18 amNNE 5.1 7.2----1015.9- 14.0 18.8----
2024-05-20 12:12 amNNE 4.6 7.2----1015.9- 13.9 18.8----
2024-05-20 12:06 amNNE 5.1 7.7----1016.1- 13.9 18.8----
2024-05-20 12:00 amNNE 5.1 7.2----1016.2 +0.0 13.8 18.8----
2024-05-19 11:54 pmNNE 5.7 7.7----1016.3- 13.6 18.8----
2024-05-19 11:48 pmNNE 6.2 8.2----1016.4- 13.5 18.8----
2024-05-19 11:42 pm NE 5.7 8.2----1016.4- 13.6 18.8----
2024-05-19 11:36 pmNNE 5.7 8.2----1016.4- 13.6 18.8----
2024-05-19 11:30 pmNNE 5.1 7.7----1016.4- 13.8 18.8----
2024-05-19 11:24 pmNNE 6.2 8.2----1016.4- 13.6 18.8----
2024-05-19 11:18 pmNNE 5.1 8.8----1016.3-- 18.9----
2024-05-19 11:12 pmNNE 5.1 8.8----1016.3-- 18.9----
2024-05-19 11:06 pmNNE 6.2 7.7----1016.2-- 18.9----
2024-05-19 11:00 pmNNE 5.7 7.7----1016.1 +0.0 13.6 18.9----
2024-05-19 10:54 pmNNE 5.1 7.7----1016.2- 13.5 18.9----
2024-05-19 10:48 pmNNE 5.7 8.8----1016.3- 13.5 18.9----
2024-05-19 10:42 pmNNE 6.2 8.2----1016.3- 13.4 18.9----
2024-05-19 10:36 pmNNE 5.1 8.8----1016.4- 13.4 18.9----
2024-05-19 10:30 pmNNE 5.1 8.8----1016.4- 13.5 18.9----
2024-05-19 10:24 pmNNE 6.2 9.3----1016.4- 13.4 18.9----
2024-05-19 10:18 pmNNE 6.7 10.3----1016.3- 13.5 19.0----
2024-05-19 10:12 pmNNE 5.7 8.2----1016.3- 13.4 19.0----
2024-05-19 10:06 pmNNE 6.2 8.8----1016.3- 13.5 19.0----
2024-05-19 10:00 pmNNE 5.7 8.2----1016.3- 13.6 19.0----
2024-05-19 09:54 pmNNE 6.7 8.8----1016.3- 13.6 19.0----
2024-05-19 09:48 pmNNE 5.1 9.3----1016.3- 13.6 19.0----
2024-05-19 09:42 pmNNE 6.2 9.3----1016.3- 13.6 19.0----
2024-05-19 09:36 pmNNE 6.2 9.8----1016.2- 13.6 19.0----
2024-05-19 09:30 pmNNE 6.2 8.8----1016.2-- 19.1----
2024-05-19 09:24 pm N 6.2 9.3----1016.1-- 19.1----
2024-05-19 09:18 pmNNE 6.2 9.3----1016.0-- 19.1----
2024-05-19 09:12 pmNNE 6.2 9.8----1016.0-- 19.1----
2024-05-19 09:06 pmNNE 6.7 10.3----1015.9-- 19.1----
2024-05-19 09:00 pmNNE 6.2 10.3----1016.0 +1.4- 19.1----
2024-05-19 08:54 pmNNE 5.1 8.8----1016.0-- 19.1----
2024-05-19 08:48 pmNNE 6.2 10.3----1016.0- 13.5 19.2----
2024-05-19 08:42 pmNNE 6.2 8.8----1016.0- 13.4 19.2----
2024-05-19 08:36 pmNNE 6.2 9.8----1016.0- 13.4 19.2----
2024-05-19 08:30 pmNNE 6.7 9.3----1015.9- 13.4 19.2----
2024-05-19 08:24 pmNNE 6.2 9.8----1016.0- 13.4 19.2----
2024-05-19 08:18 pm---------- 19.2----
2024-05-19 08:12 pm---------- 19.2----
2024-05-19 08:06 pm---------- 19.2----
2024-05-19 08:00 pmNNE 7.2 10.8----1015.9 +1.1- 19.2----
2024-05-19 07:54 pmNNE 7.2 10.8----1015.8-- 19.3----
2024-05-19 07:48 pmNNE 7.7 10.8------------
2024-05-19 07:42 pm N 7.2 9.8------------
2024-05-19 07:36 pm N 6.7 9.8------------
2024-05-19 07:30 pmNNE 6.2 9.8----1015.6- 13.6 19.3----
2024-05-19 07:24 pmNNE 6.7 8.8----1015.5- 13.7 19.3----
2024-05-19 07:00 pmNNE 6.2 9.8------- 19.3----
2024-05-19 06:54 pmNNE 6.2 9.8------- 19.3----
2024-05-19 06:48 pmNNE 6.2 9.3----1014.9-- 19.4----
2024-05-19 06:42 pmNNE 5.7 8.8----1014.8-- 19.4----
2024-05-19 06:36 pmNNE 5.7 8.8----1014.8-- 19.4----
2024-05-19 06:30 pmNNE 7.2 10.3----1014.7-- 19.4----
2024-05-19 06:24 pmNNE 6.2 10.3----1014.7-- 19.4----
2024-05-19 06:18 pm-------1014.7- 14.1 19.4----
2024-05-19 06:12 pm-------1014.7- 14.0 19.4----
2024-05-19 06:06 pm-------1014.7- 14.1 19.4----
2024-05-19 06:00 pmNNE 6.7 10.8----1014.6 +0.0 14.4 19.4----
2024-05-19 05:54 pmNNE 8.2 11.3----1014.6- 14.5 19.4----
2024-05-19 05:48 pmNNE 7.2 10.8----1014.6- 14.3 19.4----
2024-05-19 05:42 pmNNE 8.2 11.3----1014.6- 14.4 19.4----
2024-05-19 05:36 pm N 8.8 11.3----1014.7- 14.2 19.4----
2024-05-19 05:30 pmNNE 7.7 10.8----1014.7- 14.2 19.4----
2024-05-19 05:24 pmNNE 7.2 10.8----1014.7- 14.3 19.4----
2024-05-19 05:18 pmNNE 8.2 11.3----1014.7- 14.2 19.4----
2024-05-19 05:12 pmNNE 6.7 10.8----1014.7- 14.3 19.4----
2024-05-19 05:06 pmNNE 6.7 10.3----1014.8- 14.4 19.4----
2024-05-19 05:00 pmNNE 6.2 9.8----1014.8 -0.3 14.4 19.4----
2024-05-19 04:54 pmNNE 6.7 11.3----1014.7- 14.4 19.4----
2024-05-19 04:48 pmNNE 6.7 9.8----1014.7- 14.5 19.4----
2024-05-19 04:42 pmNNE 8.8 10.8----1014.7- 14.3 19.4----
2024-05-19 04:36 pmNNE 7.2 9.8----1014.7- 14.5 19.4----
2024-05-19 04:30 pmNNE 8.2 10.8----1014.8- 14.4 19.4----
2024-05-19 04:24 pmNNE 8.2 11.8----1014.8- 14.5 19.4----
2024-05-19 04:18 pmNNE 7.2 12.4----1014.8- 14.7 19.4----
2024-05-19 04:12 pmNNE 7.7 11.8----1014.8- 14.8 19.4----
2024-05-19 04:06 pmNNE 7.2 11.8----1014.7- 14.8 19.4----
2024-05-19 04:00 pmNNE 7.7 11.3----1014.7 -0.9- 19.4----
2024-05-19 03:54 pmNNE 8.8 12.4----1014.7-- 19.4----
2024-05-19 03:48 pmNNE 8.2 12.4----1014.7-- 19.4----
2024-05-19 03:42 pmNNE 8.2 12.9----1014.6-- 19.4----
2024-05-19 03:36 pmNNE 8.8 12.4----1014.7-- 19.4----
2024-05-19 03:30 pm N 8.8 12.9----1014.7- 14.8 19.4----
2024-05-19 03:24 pmNNE 7.7 11.3----1014.7- 15.2 19.4----
2024-05-19 03:18 pmNNE 7.7 11.8----1014.7- 15.2 19.3----
2024-05-19 03:12 pmNNE 6.7 12.4----1014.7- 15.3 19.3----
2024-05-19 03:06 pm N 8.8 12.9----1014.6- 15.2 19.3----
2024-05-19 03:00 pm N 8.8 12.4----1014.7 -0.7- 19.3----
2024-05-19 02:54 pmNNE 8.2 11.3----1014.6-- 19.3----
2024-05-19 02:48 pmNNE 7.7 11.8----1014.8- 15.5 19.3----
2024-05-19 02:42 pmNNE 7.2 11.8----1014.9- 15.2 19.3----
2024-05-19 02:36 pm N 8.8 11.8----1015.1- 15.1 19.2----
2024-05-19 02:30 pmNNE 8.2 11.8----1015.1- 15.0 19.2----
2024-05-19 02:24 pmNNE 8.2 10.8----1015.1- 15.2 19.2----
2024-05-19 02:18 pmNNE 6.7 9.3----1015.2- 15.1 19.2----
2024-05-19 02:12 pm N 8.2 10.8----1015.2- 15.0 19.2----
2024-05-19 02:06 pm N 7.7 11.8----1015.2- 15.3 19.2----
2024-05-19 02:00 pm N 8.8 10.8----1015.1 -0.8 15.1 19.2----
2024-05-19 01:54 pm N 7.2 10.8----1015.1- 15.1 19.1----
2024-05-19 01:48 pmNNE 8.2 10.8----1015.1- 15.0 19.1----
2024-05-19 01:42 pmNNE 7.7 10.8----1015.2- 15.2 19.1----
2024-05-19 01:36 pmNNE 6.7 10.8----1015.4- 15.1 19.1----
2024-05-19 01:30 pmNNE 7.2 10.8----1015.5- 15.1 19.1----
2024-05-19 01:24 pmNNE 7.7 10.8----1015.5- 15.1 19.1----
2024-05-19 01:18 pmNNE 8.2 10.8----1015.4-- 19.1----
2024-05-19 01:12 pmNNE 9.3 12.4----1015.4-- 19.0----
2024-05-19 01:06 pm N 7.7 11.3----1015.4-- 19.0----
2024-05-19 01:00 pmNNE 7.2 10.8----1015.6 +0.0- 19.0----
2024-05-19 12:54 pmNNE 7.7 11.8----1015.7-- 19.0----
2024-05-19 12:48 pmNNE 8.8 12.4----1015.7- 15.0 19.0----
2024-05-19 12:42 pm N 6.2 10.3----1015.8- 15.7 18.9----
2024-05-19 12:36 pmNNE 7.2 11.3----1015.8- 15.1 18.9----
2024-05-19 12:30 pmNNE 7.7 11.3----1015.8- 14.9 18.9----
2024-05-19 12:24 pm N 8.2 11.3----1015.9- 14.9 18.9----
2024-05-19 12:18 pmNNE 7.2 11.3----1015.8- 15.1 18.9----
2024-05-19 12:12 pm N 8.2 11.3----1015.7- 14.9 18.9----
2024-05-19 12:06 pmNNE 7.2 11.3----1015.6- 15.0 18.9----
2024-05-19 12:00 pmNNE 8.2 12.4----1015.4 +0.0 14.7 18.9----
2024-05-19 11:54 amNNE 8.2 12.9----1015.3- 14.9 18.8----
2024-05-19 11:48 amNNE 8.2 12.4----1015.3- 15.0 18.8----
2024-05-19 11:42 am N 9.8 12.4----1015.2- 14.8 18.7----
2024-05-19 11:36 amNNE 7.2 12.4----1015.3- 15.0 18.7----
2024-05-19 11:30 am N 8.2 10.8----1015.4- 14.7 18.7----
2024-05-19 11:24 am N 8.8 10.8----1015.5- 14.6 18.7----
2024-05-19 11:18 am-------1015.6- 14.5 18.7----
2024-05-19 11:12 am-------1015.7- 14.3 18.7----
2024-05-19 11:06 am-------1015.9- 14.3 18.6----
2024-05-19 11:00 am-------1015.9 +1.1 14.4 18.6----
2024-05-19 10:54 am-------1015.7- 14.4 18.6----
2024-05-19 10:48 am-------1015.7- 14.4 18.6----
2024-05-19 10:42 am-------1015.5- 14.4 18.5----
2024-05-19 10:36 am-------1015.5- 14.2 18.5----
2024-05-19 10:30 amNNE 7.2 9.8----1015.5- 14.4 18.5----
2024-05-19 10:24 amNNE 6.2 9.8----1015.5- 14.5 18.5----
2024-05-19 10:18 amNNE 6.2 9.8----1015.5- 14.2 18.5----
2024-05-19 10:12 am N 7.2 9.3----1015.5- 13.8 18.5----
2024-05-19 10:06 amNNE 6.2 9.3----1015.4- 14.0 18.4----
2024-05-19 10:00 amNNE 5.7 9.3----1015.5 +1.7- 18.4----
2024-05-19 09:54 amNNE 5.7 8.2----1015.4-- 18.4----
2024-05-19 09:48 am-------1015.4- 13.7 18.4----
2024-05-19 09:42 am-------1015.3- 13.7 18.4----
2024-05-19 09:36 am-------1015.3- 13.8 18.4----
2024-05-19 09:30 am N 7.2 9.8----1015.3-- 18.4----
2024-05-19 09:24 am N 6.7 9.8----1015.3-- 18.4----
2024-05-19 09:18 am N 7.2 9.8----1015.3-- 18.4----
2024-05-19 09:12 amNNE 5.7 8.8----1015.4-- 18.4----
2024-05-19 09:06 am N 7.2 9.3----1015.5-- 18.4----
2024-05-19 09:00 am N 6.7 9.3----1015.4 +2.4- 18.4----
2024-05-19 08:54 amNNE 6.2 8.8----1015.4-- 18.4----
2024-05-19 08:48 am N 6.2 8.8----1015.3- 13.4 18.5----
2024-05-19 08:42 am N 6.2 8.2----1015.3- 13.4 18.5----
2024-05-19 08:36 amNNE 6.2 8.8----1015.2- 13.3 18.5----
2024-05-19 08:30 am-------1015.2- 13.3-----
2024-05-19 08:24 am-------1015.0- 13.4-----
2024-05-19 08:18 am N 5.7 9.3----1014.9-- 18.5----
2024-05-19 08:12 am N 6.2 8.2----1014.9-- 18.5----
2024-05-19 08:06 am N 6.2 9.3----1014.9-- 18.5----
2024-05-19 08:00 amNNE 7.2 9.3----1014.8 +2.6 13.2 18.5----
2024-05-19 07:54 amNNE 6.2 8.8----1014.7- 13.2 18.5----
2024-05-19 07:48 am N 6.2 9.8----1014.6- 13.4 18.5----
2024-05-19 07:42 am N 7.2 8.8----1014.5- 13.3 18.6----
2024-05-19 07:36 am N 6.7 9.8----1014.2- 13.3 18.6----
2024-05-19 07:30 amNNE 7.2 10.3----1014.1- 13.3 18.6----
2024-05-19 07:24 am N 7.2 11.3----1014.0- 13.3 18.6----
2024-05-19 07:18 am N 8.2 10.3----1013.9- 13.1 18.7----
2024-05-19 07:12 am N 7.7 10.8----1013.8- 13.2 18.7----
2024-05-19 07:06 am N 8.2 9.8----1013.7- 13.1 18.7----
2024-05-19 07:00 am N 8.2 10.3----1013.8 +1.8------
2024-05-19 06:54 am N 7.7 10.3----1013.8-------
2024-05-19 06:48 am N 7.2 9.3----1013.8-- 18.8----
2024-05-19 06:42 am N 5.7 8.8----1013.8-- 18.9----
2024-05-19 06:36 am N 5.7 9.3----1013.7-- 19.0----
2024-05-19 06:30 am N 6.7 8.8----1013.6- 13.6 19.0----
2024-05-19 06:24 am N 7.2 8.8----1013.4- 13.5 19.0----
2024-05-19 06:18 am N 6.2 8.8----1013.2-- 19.0----
2024-05-19 06:12 am N 7.2 10.3----1013.1-- 19.0----
2024-05-19 06:06 am N 8.2 9.8----1013.1-- 19.0----
2024-05-19 06:00 am-------1013.0 +0.7------
2024-05-19 05:54 am-------1012.9-------
2024-05-19 05:48 am N 6.7 9.3----1012.8- 13.5 19.0----
2024-05-19 05:42 am N 5.7 9.3----1012.8- 13.5 19.0----
2024-05-19 05:36 am N 7.2 9.8----1012.8- 13.4 19.0----
2024-05-19 05:30 am N 8.2 9.8----1012.6- 13.5 19.0----
2024-05-19 05:24 am N 6.2 8.2----1012.6- 13.6 19.0----
2024-05-19 05:18 am N 6.7 9.3----1012.5- 13.7 19.0----
2024-05-19 05:12 am N 7.2 9.8----1012.3- 13.8 19.0----
2024-05-19 05:06 am N 6.7 9.3----1012.3- 13.9 19.0----
2024-05-19 05:00 am N 6.2 8.8----1012.2 +0.0 14.0 19.0----
2024-05-19 04:54 am N 6.2 8.2----1012.2- 14.0 19.0----
2024-05-19 04:48 am N 6.2 8.2----1012.1- 14.1 19.0----
2024-05-19 04:42 am N 6.2 8.2----1012.2- 14.1 19.0----
2024-05-19 04:36 am N 6.7 8.8----1012.2- 14.1 19.0----
2024-05-19 04:30 am N 5.7 7.7----1012.1- 14.1 19.0----
2024-05-19 04:24 am N 6.2 8.8----1012.1- 14.1 19.0----
2024-05-19 04:18 am N 6.7 8.2----1012.1- 14.0 19.1----
2024-05-19 04:12 am N 6.2 8.2----1012.1- 14.0 19.1----
2024-05-19 04:06 am N 5.1 8.8----1012.1- 14.0 19.1----
2024-05-19 04:00 am N 6.2 7.7----1012.0 +0.0 13.8 19.1----
2024-05-19 03:54 am N 6.2 7.7----1011.9- 13.9 19.1----
2024-05-19 03:48 am N 5.7 9.8----1011.9- 14.0 19.1----
2024-05-19 03:42 amNNE 6.2 8.2----1011.8- 13.9 19.1----
2024-05-19 03:36 am N 6.7 8.2----1012.0- 14.0 19.1----
2024-05-19 03:30 am N 6.7 9.3----1012.0- 14.1 19.1----
2024-05-19 03:24 am N 6.7 8.8----1012.0- 14.1 19.1----
2024-05-19 03:18 am N 6.2 8.2----1012.1- 14.3 19.1----
2024-05-19 03:12 amNNE 6.2 7.7----1012.0- 14.4 19.1----
2024-05-19 03:06 amNNE 4.6 7.2----1012.2- 14.5 19.1----
2024-05-19 03:00 amNNE 5.7 7.2----1012.3 +0.0 14.5 19.1----
2024-05-19 02:54 amNNE 5.7 7.2----1012.3- 14.5 19.2----
2024-05-19 02:48 am N 5.7 7.7----1012.3- 14.6 19.2----
2024-05-19 02:42 am N 6.2 7.7----1012.4- 14.6 19.2----
2024-05-19 02:36 am N 6.2 8.8----1012.3- 14.6 19.2----
2024-05-19 02:30 am N 6.2 8.2----1012.3- 14.6 19.2----
2024-05-19 02:24 amNNE 5.1 9.3----1012.3- 14.8 19.2----
2024-05-19 02:18 am N 5.7 8.8----1012.2- 15.0 19.2----
2024-05-19 02:12 am N 6.7 8.2----1012.2- 15.1 19.2----
2024-05-19 02:06 am N 5.7 7.7----1012.1- 15.1 19.2----
2024-05-19 02:00 am N 5.7 7.2----1012.1 -0.7 15.1 19.2----
2024-05-19 01:54 am N 5.7 8.8----1012.3- 15.2 19.2----
2024-05-19 01:48 am N 5.7 8.8----1012.1- 15.0 19.2----
2024-05-19 01:42 am N 5.7 8.2----1012.0- 15.0 19.2----
2024-05-19 01:36 am N 6.2 8.2----1012.0- 15.1 19.2----
2024-05-19 01:30 am N 6.2 7.2----1011.9- 15.1 19.3----
2024-05-19 01:24 amNNE 5.1 8.8----1011.7- 15.2 19.3----
2024-05-19 01:18 amNNE 5.7 8.2----1011.8- 15.2 19.3----
2024-05-19 01:12 amNNE 4.6 7.7----1011.8- 15.3 19.3----
2024-05-19 01:06 amNNE 5.1 7.7----1012.0- 15.3 19.3----
2024-05-19 01:00 amNNE 4.6 7.7----1012.1 -1.1 15.3 19.3----
2024-05-19 12:54 amNNE 5.1 7.2----1012.2- 15.3 19.3----